Location: ??
(31.9467°N, 34.8903°E)
Time: 12:14:57
(UTC+00:00)

Okean-O - Pass Details

Date: 29 October 2020
Orbit: 638 x 641 km, 98.2° (Epoch: 26 November)

Event Time Altitude Azimuth Distance (km) Brightness Sun altitude
Rises 16:16:59 0° 165° (SSE) 2,930 5.9 -18.3°
Reaches altitude 10° 16:19:11 10° 165° (SSE) 2,024 5.1 -18.8°
Maximum altitude 16:23:35 85° 78° (ENE) 648 2.5 -19.7°
Drops below altitude 10° 16:28:02 10° 349° (N) 2,036 5.3 -20.7°
Sets 16:30:15 0° 349° (N) 2,948 6.1 -21.1°
